Simultaneous Nadir Overpasses (SNOs) Predictions

Prediction of SNOs between FY3D and NOAA-19 Satellite Orbit:

Table of predicted SNOs for the next 14.0 days since TLE Epoch: 8/29/2020
Index Date (FY3D) Time (FY3D) Lat,Lon (FY3D) SZA (FY3D ) Date (NOAA-19) Time (NOAA-19) Lat,Lon (NOAA-19) SZA (NOAA-19 ) Distance(km) Time Diff (sec)
1 09/04/2020 16:02:13 79.17, -90.87 73.78 09/04/2020 16:01:10 79.19, -90.93 73.83 2.84 63
2 09/04/2020 16:52:57 -79.17, 76.41 106.20 09/04/2020 16:52:06 -79.19, 76.35 106.16 2.40 51
3 09/04/2020 17:43:43 79.20,-116.48 73.86 09/04/2020 17:43:11 79.18,-116.55 73.86 3.07 32
4 09/04/2020 18:34:27 -79.21, 50.79 106.13 09/04/2020 18:34:07 -79.18, 50.72 106.14 3.59 20
5 09/04/2020 19:25:12 79.20,-141.84 73.88 09/04/2020 19:25:11 79.19,-141.91 73.88 1.54 1
6 09/04/2020 20:15:56 -79.21, 25.43 106.10 09/04/2020 20:16:07 -79.19, 25.36 106.11 1.98 11
7 09/04/2020 21:06:41 79.20,-167.20 73.90 09/04/2020 21:07:11 79.21,-167.27 73.91 1.83 30
8 09/04/2020 21:57:25 -79.20, 0.08 106.08 09/04/2020 21:58:07 -79.21, 0.00 106.09 1.66 42
9 09/04/2020 22:48:10 79.20, 167.44 73.93 09/04/2020 22:49:11 79.23, 167.38 73.93 3.49 61
